DW8780 Weather Reports


Display with metric or nautical units.
time (UTC)temp
F
wind
direction
speed
MPH
gust
MPH
rain 1hr
in
rain 24hr
in
rain mn
in
humidity
%
barometer
mb
20260504130503 61 339 2.0 7.0 0.00 0.00 0.00 69 1016.5
20260504110503 52 15 2.0 6.0 0.00 0.00 0.00 81 1017.3
20260504100502 51 359 2.0 7.0 0.00 0.00 0.00 82 1016.9
20260504081503 50 357 3.0 7.0 0.00 0.00 0.00 82 1017.5
20260504081003 50 2 3.0 6.0 0.00 0.00 0.00 82 1017.5
20260504080503 50 10 2.0 6.0 0.00 0.00 0.00 82 1017.5
20260504050504 45 26 1.0 4.0 0.00 0.00 0.00 73 1017.6
20260504050003 45 28 2.0 4.0 0.00 0.00 0.00 73 1017.6
20260504045503 45 16 2.0 4.0 0.00 0.00 0.00 73 1017.5
20260504045002 45 13 1.0 4.0 0.00 0.00 0.00 73 1017.6
20260504044503 45 14 1.0 3.0 0.00 0.00 0.00 73 1017.5
20260504043503 45 34 1.0 3.0 0.00 0.00 0.00 72 1017.4
20260504043004 45 11 1.0 3.0 0.00 0.00 0.00 72 1017.4
20260504042503 44 3 1.0 3.0 0.00 0.00 0.00 72 1017.3
20260504042003 45 353 1.0 3.0 0.00 0.00 0.00 72 1017.3
20260504041504 45 356 0.0 2.0 0.00 0.00 0.00 72 1017.3
20260504040504 45 70 0.0 2.0 0.00 0.00 0.00 70 1017.1
20260504040002 45 52 1.0 2.0 0.00 0.00 0.00 70 1017.1
20260504035503 45 12 1.0 2.0 0.00 0.00 0.00 69 1016.9
20260504034503 46 5 1.0 2.0 0.00 0.00 0.00 69 1017.0
20260504034003 46 3 1.0 3.0 0.00 0.00 0.00 68 1017.0
20260504033502 46 11 1.0 3.0 0.00 0.00 0.00 68 1016.8
20260504033003 46 13 1.0 3.0 0.00 0.00 0.00 68 1016.8
20260504032502 46 11 1.0 2.0 0.00 0.00 0.00 67 1016.9
20260504032003 46 8 0.0 2.0 0.00 0.00 0.00 68 1016.8
20260504031504 46 68 0.0 2.0 0.00 0.00 0.00 67 1016.8
20260504031002 47 63 1.0 2.0 0.00 0.00 0.00 66 1016.8
20260504030503 47 3 1.0 2.0 0.00 0.00 0.00 65 1016.7
20260504030002 47 1 1.0 2.0 0.00 0.00 0.00 64 1016.8
20260504025503 47 3 1.0 2.0 0.00 0.00 0.00 64 1016.8
20260504025002 47 4 1.0 2.0 0.00 0.00 0.00 64 1016.7
20260504024503 48 2 1.0 2.0 0.00 0.00 0.00 64 1016.8
20260504024002 48 5 1.0 2.0 0.00 0.00 0.00 62 1016.8
20260504023503 48 6 1.0 2.0 0.00 0.00 0.00 61 1016.8
20260504022504 48 4 1.0 3.0 0.00 0.00 0.00 59 1016.7
20260504022002 48 4 1.0 3.0 0.00 0.00 0.00 60 1016.7
20260504021502 48 11 1.0 4.0 0.00 0.00 0.00 59 1016.8
20260504021003 48 6 1.0 4.0 0.00 0.00 0.00 60 1016.7
20260504020503 48 1 1.0 3.0 0.00 0.00 0.00 60 1016.8
20260504015003 49 6 1.0 3.0 0.00 0.00 0.00 60 1016.6
20260504014502 49 13 1.0 2.0 0.00 0.00 0.00 59 1016.6
20260504014003 49 24 1.0 2.0 0.00 0.00 0.00 58 1016.6
20260504013502 50 6 1.0 3.0 0.00 0.00 0.00 59 1016.5
20260504013003 50 4 1.0 3.0 0.00 0.00 0.00 57 1016.5
20260504012003 50 4 0.0 2.0 0.00 0.00 0.00 55 1016.3
20260504011503 50 4 1.0 2.0 0.00 0.00 0.00 55 1016.3
20260504011003 51 10 1.0 2.0 0.00 0.00 0.00 54 1016.3
20260504010502 51 11 1.0 3.0 0.00 0.00 0.00 53 1016.3
20260504004503 52 6 0.0 2.0 0.00 0.00 0.00 52 1016.0
20260504003003 53 298 0.0 2.0 0.00 0.00 0.00 48 1015.9
20260504002502 54 318 0.0 2.0 0.00 0.00 0.00 47 1015.8
20260504002003 55 342 0.0 2.0 0.00 0.00 0.00 46 1015.7
20260504001503 55 350 0.0 2.0 0.00 0.00 0.00 47 1015.6
20260504001003 56 352 0.0 2.0 0.00 0.00 0.00 45 1015.5
20260504000504 56 337 0.0 2.0 0.00 0.00 0.00 43 1015.4
20260504000003 56 299 0.0 2.0 0.00 0.00 0.00 42 1015.4
20260503235503 57 290 0.0 2.0 0.00 0.00 0.00 41 1015.4
20260503235002 57 289 0.0 2.0 0.00 0.00 0.00 42 1015.3
20260503234504 58 297 0.0 2.0 0.00 0.00 0.00 39 1015.2
20260503234003 58 306 1.0 4.0 0.00 0.00 0.00 39 1015.3
20260503233502 58 309 1.0 4.0 0.00 0.00 0.00 38 1015.3
20260503233002 59 296 1.0 3.0 0.00 0.00 0.00 37 1015.3
20260503232503 59 289 1.0 4.0 0.00 0.00 0.00 36 1015.3
20260503232003 59 303 2.0 7.0 0.00 0.00 0.00 35 1015.3
20260503231502 59 312 2.0 7.0 0.00 0.00 0.00 36 1015.3
20260503231004 60 303 2.0 7.0 0.00 0.00 0.00 36 1015.3
20260503230503 60 306 3.0 9.0 0.00 0.00 0.00 35 1015.3
20260503230002 60 308 3.0 11.0 0.00 0.00 0.00 34 1015.1
20260503225503 60 312 3.0 11.0 0.00 0.00 0.00 34 1015.1
20260503224503 60 318 4.0 10.0 0.00 0.00 0.00 35 1015.1
20260503224003 60 318 4.0 12.0 0.00 0.00 0.00 34 1015.1
20260503223003 61 305 3.0 9.0 0.00 0.00 0.00 36 1015.1
20260503222503 61 303 3.0 10.0 0.00 0.00 0.00 35 1015.1
20260503222002 61 305 4.0 10.0 0.00 0.00 0.00 33 1015.2
20260503221503 61 307 4.0 8.0 0.00 0.00 0.00 34 1015.2
20260503221002 61 316 4.0 8.0 0.00 0.00 0.00 33 1015.1
20260503220503 61 312 4.0 9.0 0.00 0.00 0.00 34 1015.1
20260503220003 61 313 4.0 9.0 0.00 0.00 0.00 33 1015.2
20260503215503 61 325 4.0 10.0 0.00 0.00 0.00 34 1015.2
20260503215003 61 329 4.0 15.0 0.00 0.00 0.00 35 1015.2
20260503214502 61 315 4.0 15.0 0.00 0.00 0.00 34 1015.1
20260503213502 61 316 4.0 8.0 0.00 0.00 0.00 35 1015.1
20260503213003 61 320 4.0 12.0 0.00 0.00 0.00 35 1015.2
20260503212503 60 322 5.0 12.0 0.00 0.00 0.00 35 1015.1
20260503212003 61 326 5.0 23.0 0.00 0.00 0.00 34 1015.2
20260503211503 61 332 6.0 23.0 0.00 0.00 0.00 33 1015.1
20260503211002 61 330 5.0 12.0 0.00 0.00 0.00 33 1015.1
20260503210503 61 320 4.0 12.0 0.00 0.00 0.00 34 1015.1
20260503210003 61 329 5.0 13.0 0.00 0.00 0.00 33 1015.1
20260503205504 61 328 5.0 13.0 0.00 0.00 0.00 33 1015.1
20260503205002 61 329 5.0 12.0 0.00 0.00 0.00 33 1015.1
20260503204503 61 334 4.0 12.0 0.00 0.00 0.00 34 1015.0
20260503204003 60 331 4.0 11.0 0.00 0.00 0.00 35 1014.9
20260503203502 60 327 4.0 11.0 0.00 0.00 0.00 33 1015.1
20260503203003 60 322 4.0 10.0 0.00 0.00 0.00 36 1015.0
20260503202503 60 324 5.0 21.0 0.00 0.00 0.00 35 1015.1
20260503202002 60 330 5.0 21.0 0.00 0.00 0.00 33 1015.2
20260503201504 60 344 6.0 24.0 0.00 0.00 0.00 34 1015.3
20260503201002 60 344 6.0 24.0 0.00 0.00 0.00 33 1015.4
20260503200503 60 332 5.0 13.0 0.00 0.00 0.00 33 1015.5
20260503195503 60 327 4.0 11.0 0.00 0.00 0.00 33 1015.5
20260503194503 60 347 5.0 18.0 0.00 0.00 0.00 35 1015.6
20260503194006 60 343 6.0 19.0 0.00 0.00 0.00 34 1015.5
20260503193502 60 336 5.0 19.0 0.00 0.00 0.00 33 1015.6
20260503193003 60 331 4.0 16.0 0.00 0.00 0.00 35 1015.6
20260503192502 59 331 4.0 11.0 0.00 0.00 0.00 34 1015.7
20260503192003 59 328 4.0 11.0 0.00 0.00 0.00 35 1015.6
20260503191503 58 329 4.0 11.0 0.00 0.00 0.00 36 1015.6
20260503190504 59 332 4.0 15.0 0.00 0.00 0.00 33 1015.8
20260503185503 58 330 4.0 12.0 0.00 0.00 0.00 35 1015.9
20260503184503 58 335 5.0 14.0 0.00 0.00 0.00 34 1016.1
20260503184003 58 322 5.0 11.0 0.00 0.00 0.00 35 1016.1
20260503183503 58 334 5.0 14.0 0.00 0.00 0.00 32 1016.1
20260503183002 59 339 4.0 14.0 0.00 0.00 0.00 33 1016.1
20260503182503 58 323 3.0 9.0 0.00 0.00 0.00 35 1016.0
20260503181004 58 353 8.0 24.0 0.00 0.00 0.00 33 1016.2
20260503180503 58 338 6.0 17.0 0.00 0.00 0.00 33 1016.1
20260503180003 57 320 5.0 17.0 0.00 0.00 0.00 36 1016.3
20260503175502 57 317 5.0 17.0 0.00 0.00 0.00 33 1016.3
20260503175003 57 324 5.0 13.0 0.00 0.00 0.00 35 1016.4
20260503174503 57 329 5.0 13.0 0.00 0.00 0.00 35 1016.4
20260503174003 56 327 6.0 16.0 0.00 0.00 0.00 35 1016.3
20260503173503 57 326 5.0 16.0 0.00 0.00 0.00 35 1016.4
20260503173003 58 346 7.0 18.0 0.00 0.00 0.00 36 1016.4
20260503172002 57 342 7.0 16.0 0.00 0.00 0.00 35 1016.4
20260503171502 57 339 7.0 18.0 0.00 0.00 0.00 35 1016.4
20260503151003 55 321 4.0 12.0 0.00 0.00 0.00 42 1016.6